EA5ILC Weather Reports


time (UTC)temp
C
wind
direction
speed
KPH
gust
KPH
rain 1hr
cm
rain 24hr
cm
rain mn
cm
humidity
%
barometer
mb
20260504100534 17 207 3.2 9.7 0.00 0.36 0.36 91 1015.7
20260504081605 17 185 3.2 6.4 0.00 0.36 0.36 95 1015.8
20260504080602 17 203 0.0 3.2 0.00 0.36 0.36 96 1015.7
20260504050516 16 0.0 0.0 0.00 0.36 0.36 98 1015.0
20260504045613 15 0.0 0.0 0.00 0.36 0.36 98 1014.8
20260504044631 15 0.0 0.0 0.00 0.36 0.36 98 1014.8
20260504043608 15 0.0 0.0 0.00 0.36 0.36 98 1014.7
20260504042605 15 0 0.0 3.2 0.00 0.36 0.36 98 1014.8
20260504041603 15 0 0.0 3.2 0.00 0.36 0.36 98 1014.8
20260504040600 15 338 0.0 3.2 0.00 0.36 0.36 98 1014.8
20260504035618 15 0.0 0.0 0.00 0.36 0.36 98 1015.1
20260504034555 15 0.0 0.0 0.15 0.36 0.36 97 1015.1
20260504033552 15 0.0 0.0 0.15 0.36 0.36 97 1015.4
20260504032550 15 0.0 3.2 0.15 0.36 0.36 97 1015.4
20260504031548 15 0.0 0.0 0.36 0.36 0.36 97 1015.6
20260504030545 15 0.0 0.0 0.36 0.36 0.36 96 1015.6
20260504025542 15 0.0 0.0 0.36 0.36 0.36 96 1015.8
20260504024539 -17 0.0 0.0 0.20 0.20 0.20 1015.6
20260504023557 -17 0.0 0.0 0.20 0.20 0.20 1015.7
20260504022534 16 0.0 0.0 0.20 0.20 0.20 92 1015.7
20260504021532 16 270 1.6 3.2 0.00 0.00 0.00 91 1015.8
20260504020559 16 158 0.0 3.2 0.00 0.00 0.00 91 1015.8
20260504015556 16 0.0 3.2 0.00 0.00 0.00 90 1015.7
20260504014554 16 165 0.0 3.2 0.00 0.00 0.00 88 1015.9
20260504013551 16 0.0 3.2 0.00 0.00 0.00 87 1015.8
20260504012549 16 187 1.6 3.2 0.00 0.00 0.00 87 1015.7
20260504011546 16 0.0 3.2 0.00 0.00 0.00 89 1015.9
20260504010543 16 0.0 0.0 0.00 0.00 0.00 90 1015.9
20260504005621 16 0.0 0.0 0.00 0.00 0.00 91 1015.9
20260504004538 16 0.0 0.0 0.00 0.00 0.00 91 1015.7
20260504003535 16 0.0 0.0 0.00 0.00 0.00 91 1015.7
20260504002533 16 0.0 0.0 0.00 0.00 0.00 91 1015.8
20260504001550 16 0.0 0.0 0.00 0.00 0.00 91 1015.8
20260504000528 16 0.0 0.0 0.00 0.00 0.00 90 1015.9
20260503235545 16 0 0.0 3.2 0.00 0.00 0.00 90 1016.1
20260503234542 16 352 1.6 6.4 0.00 0.00 0.00 90 1016.3
20260503233520 16 3 3.2 6.4 0.00 0.00 0.00 89 1016.4
20260503232517 16 23 0.0 3.2 0.00 0.00 0.00 87 1016.6
20260503231615 16 0 0.0 6.4 0.00 0.00 0.00 87 1016.5
20260503230612 16 0.0 3.2 0.00 0.00 0.00 87 1016.6
20260503225750 16 0.0 3.2 0.00 0.00 0.00 88 1016.7
20260503224607 16 113 0.0 3.2 0.00 0.00 0.00 88 1016.8
20260503223624 16 90 1.6 3.2 0.00 0.00 0.00 88 1016.8
20260503222602 16 225 1.6 3.2 0.00 0.00 0.00 88 1016.8
20260503221559 16 0.0 3.2 0.00 0.00 0.00 89 1016.9
20260503220556 16 0.0 3.2 0.00 0.00 0.00 89 1017.0
20260503215554 16 121 1.6 3.2 0.00 0.00 0.00 89 1017.0
20260503214551 -17 0.0 0.0 0.00 0.00 0.00 1016.8
20260503213548 -17 0.0 0.0 0.00 0.00 0.00 1017.0
20260503212546 16 0.0 0.0 0.00 0.00 0.00 93 1017.2
20260503211543 16 0.0 0.0 0.00 0.00 0.00 93 1017.0
20260503210541 16 327 1.6 3.2 0.00 0.00 0.00 94 1016.8
20260503205558 16 332 0.0 3.2 0.00 0.00 0.00 94 1016.9
20260503204536 16 270 1.6 3.2 0.00 0.00 0.00 94 1016.9
20260503203533 16 267 1.6 6.4 0.00 0.00 0.00 94 1016.8
20260503202530 16 284 3.2 6.4 0.00 0.00 0.00 93 1016.6
20260503201527 16 284 1.6 6.4 0.00 0.00 0.00 93 1016.4
20260503200525 16 338 3.2 6.4 0.00 0.00 0.00 93 1016.3
20260503195522 16 253 1.6 6.4 0.00 0.00 0.00 93 1016.1
20260503194520 16 320 0.0 3.2 0.00 0.00 0.00 93 1015.8
20260503193517 16 40 1.6 6.4 0.00 0.00 0.00 92 1015.4
20260503192615 16 133 1.6 3.2 0.00 0.00 0.00 92 1015.2
20260503191612 16 116 1.6 6.4 0.00 0.00 0.00 92 1015.1
20260503190610 16 102 1.6 6.4 0.00 0.00 0.00 92 1015.2
20260503185607 16 262 1.6 6.4 0.00 0.00 0.00 92 1015.2
20260503184605 16 139 3.2 9.7 0.00 0.00 0.00 92 1015.1
20260503183602 16 131 3.2 6.4 0.00 0.00 0.00 91 1015.1
20260503182559 16 135 3.2 6.4 0.00 0.00 0.00 91 1015.0
20260503181557 17 134 3.2 6.4 0.00 0.00 0.00 90 1014.8
20260503180554 17 130 4.8 6.4 0.00 0.00 0.00 89 1014.9
20260503175551 17 140 3.2 6.4 0.00 0.00 0.00 89 1014.9
20260503174549 17 131 3.2 6.4 0.00 0.00 0.00 89 1014.7
20260503173546 17 124 4.8 9.7 0.00 0.00 0.00 88 1014.8
20260503172543 17 152 6.4 9.7 0.00 0.00 0.00 88 1014.8
20260503171541 17 129 4.8 12.9 0.00 0.00 0.00 87 1014.6
20260503170538 17 131 4.8 12.9 0.00 0.00 0.00 87 1014.7
20260503150607 21 256 4.8 12.9 0.00 0.00 0.00 72 1015.0
20260503130536 25 164 4.8 11.3 0.00 0.00 0.00 63 1016.1
20260503110605 20 290 1.6 6.4 0.00 0.00 0.00 75 1017.0